Terminal Aerodrome Forecast
Issued by NWS

Home | Current Version | Previous Version | Text Only | Print | Product List | Glossary On
Versions: 1 2 3 4 5 6 7 8 9 10 11 12 13 14 15 16 17 18 19 20 21
000
FTUS42 TJSJ 221100
TAFIST
TAF
TIST 221122Z 2212/2312 12015KT P6SM VCTS SCT020CB BKN030
      TEMPO 2212/2213 16014KT 1SM TSRA OVC015CB
     FM221400 14015KT P6SM VCTS SCT015CB BKN025 OVC040=

USA.gov is the U.S. government's official web portal to all federal, state and local government web resources and services.